TimeAKST,TemperatureF,Dew PointF,Humidity,Sea Level PressureIn,VisibilityMPH,Wind Direction,Wind SpeedMPH,Gust SpeedMPH,PrecipitationIn,Events,Conditions,WindDirDegrees,DateUTC
12:53 AM,39.9,30.9,70,29.65,10.0,ESE,13.8,-,N/A,,Overcast,120,2013-02-26 09:53:00
1:53 AM,39.9,28.9,65,29.62,10.0,SE,18.4,26.5,N/A,,Mostly Cloudy,130,2013-02-26 10:53:00
3:53 AM,41.0,28.9,62,29.55,10.0,ESE,24.2,32.2,N/A,,Overcast,110,2013-02-26 12:53:00
4:53 AM,42.1,28.9,60,29.53,10.0,East,26.5,34.5,N/A,,Overcast,100,2013-02-26 13:53:00
5:53 AM,41.0,28.9,62,29.52,10.0,ESE,18.4,27.6,N/A,,Overcast,120,2013-02-26 14:53:00
6:53 AM,41.0,30.0,65,29.51,10.0,ESE,16.1,-,N/A,,Mostly Cloudy,120,2013-02-26 15:53:00
7:53 AM,41.0,30.0,65,29.50,10.0,SE,17.3,26.5,N/A,,Overcast,130,2013-02-26 16:53:00
8:53 AM,39.9,30.9,70,29.52,10.0,ESE,11.5,-,N/A,,Overcast,120,2013-02-26 17:53:00
9:53 AM,42.1,32.0,67,29.52,10.0,SE,13.8,-,N/A,,Overcast,130,2013-02-26 18:53:00
10:53 AM,44.1,30.9,60,29.52,10.0,ESE,12.7,18.4,N/A,,Mostly Cloudy,120,2013-02-26 19:53:00
11:53 AM,44.1,32.0,63,29.53,10.0,ESE,12.7,-,N/A,,Overcast,110,2013-02-26 20:53:00
12:53 PM,44.1,32.0,63,29.53,10.0,ESE,15.0,-,N/A,,Mostly Cloudy,120,2013-02-26 21:53:00
1:53 PM,43.0,33.1,68,29.54,10.0,ESE,10.4,-,N/A,,Overcast,120,2013-02-26 22:53:00
2:53 PM,42.1,33.1,70,29.54,10.0,SE,20.7,25.3,N/A,,Mostly Cloudy,130,2013-02-26 23:53:00
3:53 PM,41.0,34.0,76,29.55,10.0,ESE,17.3,25.3,0.00,Rain,Light Rain,120,2013-02-27 00:53:00
4:05 PM,39.2,33.8,81,29.56,10.0,ESE,19.6,26.5,0.00,Rain,Light Rain,120,2013-02-27 01:05:00
4:15 PM,37.4,33.8,87,29.56,6.0,ESE,17.3,-,0.01,Rain,Rain,120,2013-02-27 01:15:00
4:45 PM,37.4,35.6,93,29.55,10.0,ESE,10.4,-,0.02,Rain,Light Rain,110,2013-02-27 01:45:00
4:53 PM,37.9,35.1,89,29.55,10.0,ESE,10.4,-,0.02,,Overcast,120,2013-02-27 01:53:00
5:36 PM,37.4,33.8,87,29.56,10.0,ESE,13.8,23.0,0.01,Rain,Light Rain,120,2013-02-27 02:36:00
5:48 PM,37.4,35.6,93,29.56,10.0,East,16.1,24.2,0.01,Rain,Light Rain,100,2013-02-27 02:48:00
5:53 PM,37.9,34.0,86,29.56,10.0,ESE,12.7,24.2,0.01,Rain,Light Rain,120,2013-02-27 02:53:00
6:01 PM,37.4,33.8,87,29.55,10.0,ESE,12.7,-,0.00,Rain,Light Rain,120,2013-02-27 03:01:00
6:53 PM,39.0,35.1,86,29.55,10.0,SE,11.5,-,0.00,Rain,Light Rain,130,2013-02-27 03:53:00
7:53 PM,39.0,34.0,82,29.55,10.0,SE,13.8,-,0.01,Rain,Light Rain,130,2013-02-27 04:53:00
8:09 PM,37.4,35.6,93,29.55,10.0,ESE,13.8,-,0.00,Rain,Light Rain,120,2013-02-27 05:09:00
8:40 PM,37.4,35.6,93,29.55,10.0,ESE,18.4,24.2,0.02,Rain,Light Rain,110,2013-02-27 05:40:00
8:53 PM,37.9,35.1,89,29.55,10.0,ESE,15.0,24.2,0.03,Rain,Light Rain,120,2013-02-27 05:53:00
9:53 PM,39.0,35.1,86,29.56,10.0,SE,13.8,-,0.00,,Overcast,130,2013-02-27 06:53:00
10:53 PM,39.0,35.1,86,29.57,10.0,ESE,18.4,24.2,0.00,Rain,Light Rain,110,2013-02-27 07:53:00
11:12 PM,39.2,35.6,87,29.57,10.0,ESE,13.8,-,0.00,Rain,Light Rain,120,2013-02-27 08:12:00
11:53 PM,37.0,34.0,89,29.58,7.0,ESE,15.0,25.3,0.07,Rain,Light Rain,110,2013-02-27 08:53:00